Location: Gibsondale
(40.9931°N, 80.2478°W)
Time: 18:19:52
(UTC+00:00)

Cosmos 1825 - Pass Details

Date: 29 October 2020
Orbit: 502 x 508 km, 82.5° (Epoch: 24 November)

Event Time Altitude Azimuth Distance (km) Brightness Sun altitude
Rises 23:30:45 0° 3° (N) 2,619 5.7 -13.9°
Reaches altitude 10° 23:33:05 10° 14° (NNE) 1,728 4.7 -14.3°
Maximum altitude 23:36:26 30° 77° (ENE) 939 2.9 -15.0°
Enters shadow 23:36:53 29° 91° (E) 959 2.9 -15.1°
